56P/Slaughter-Burnham (2005)

Japanese version
Home page
Updated on May 8, 2006

---------------------------------------------------------------------

* Profile

* Pictures

* Orbital Elements

Epoch 2005 Jan. 30.0 TT = JDT 2453400.5
T 2005 Jan. 15.0207 TT                                  MPCW
q   2.535226             (2000.0)            P               Q
n   0.0853250      Peri.   44.0969      +0.8611242      -0.5072787
a   5.109970       Node   346.2714      +0.4182981      +0.7446000
e   0.503867       Incl.    8.1555      +0.2889496      +0.4338654
P  11.6
From 83 observations 1958-1997, mean residual 1".0.

* Finding Charts

* Magnitudes Graph

        m1 = 8.5 + 5 log d + 15.0 log r

---------------------------------------------------------------------

The orbital elements are published at the MPC Ephemerides and Orbital Elements.
The charts are made with StellaNavigator Ver.2.0 for Windows (AstroArts / ASCII).
The magnitudes graphs are made with Comet for Windows.

---------------------------------------------------------------------

Copyright(C) Seiichi Yoshida (comet@aerith.net). All rights reserved.